STARLINK-35939

Last updated on Wed Dec 31 2025 00:02:06 GMT+0000 (Coordinated Universal Time)

1 66584U 25268AD 25364.58335648 -.00804401 00000+0 -31114-1 0 9993 2 66584 43.0006 16.9605 0000981 247.4653 167.6751 15.28070718 6020
UTC large
Height (km)
Speed (km/s)
/
Latitude / Longitude
Inclination (degrees)
Orbital Period (minutes)
Azimuth
Elevation
Range (km)
Doppler Factor

Next 0 passes for location: London (51.5072 / 0.1276)

Sorry there are no passes over London.